• In Portugal
  • List of Countries
  • For 7 days
  • Water Temperature
  • Satellite Maps
  • Weather Map
  • Weather Widgets
  • user-avatar
    Login

    Hourly Weather Saidpur

    Today, 16 July, Monday

    Time Temperature Precipitation Wind Pressure Humidity
    00:00 +33°C° 0.2 mm 3 mps 746 mmHg 71%
    01:00 +33°C° 0.2 mm 3 mps 746 mmHg 73%
    02:00 +31°C° 0.2 mm 3 mps 746 mmHg 74%
    03:00 +31°C° 0.2 mm 3 mps 746 mmHg 76%
    04:00 +31°C° 0 mm 3 mps 746 mmHg 77%
    05:00 +32°C° 0 mm 4 mps 746 mmHg 79%
    06:00 +30°C° 0 mm 4 mps 746 mmHg 80%
    07:00 +32°C° 0 mm 5 mps 746 mmHg 77%
    08:00 +33°C° 0 mm 5 mps 746 mmHg 74%
    09:00 +34°C° 0 mm 6 mps 746 mmHg 71%
    10:00 +35°C° 0 mm 6 mps 746 mmHg 67%
    11:00 +36°C° 0 mm 6 mps 746 mmHg 63%
    12:00 +38°C° 0 mm 6 mps 746 mmHg 59%
    13:00 +38°C° 0.1 mm 6 mps 745 mmHg 57%
    14:00 +39°C° 0.1 mm 6 mps 745 mmHg 55%
    15:00 +39°C° 0.1 mm 6 mps 744 mmHg 53%
    16:00 +38°C° 0.2 mm 6 mps 744 mmHg 56%
    17:00 +38°C° 0.2 mm 6 mps 744 mmHg 59%
    18:00 +36°C° 0.2 mm 6 mps 744 mmHg 61%
    19:00 +35°C° 0.1 mm 5 mps 745 mmHg 64%
    20:00 +34°C° 0.1 mm 5 mps 746 mmHg 67%
    21:00 +34°C° 0.1 mm 5 mps 746 mmHg 70%
    22:00 +33°C° 0 mm 5 mps 746 mmHg 72%
    23:00 +33°C° 0 mm 5 mps 747 mmHg 74%

    Tomorrow, 17 July, Tuesday

    Time Temperature Precipitation Wind Pressure Humidity
    00:00 +32°C° 0 mm 5 mps 747 mmHg 75%
    01:00 +32°C° 0 mm 5 mps 747 mmHg 77%
    02:00 +30°C° 0 mm 5 mps 746 mmHg 78%
    03:00 +30°C° 0 mm 5 mps 746 mmHg 80%
    04:00 +30°C° 0 mm 6 mps 746 mmHg 80%
    05:00 +30°C° 0 mm 6 mps 746 mmHg 81%
    06:00 +30°C° 0 mm 6 mps 746 mmHg 82%
    07:00 +32°C° 0 mm 6 mps 746 mmHg 79%
    08:00 +32°C° 0 mm 6 mps 747 mmHg 76%
    09:00 +33°C° 0 mm 7 mps 747 mmHg 73%
    10:00 +34°C° 0.3 mm 6 mps 747 mmHg 68%
    11:00 +35°C° 0.3 mm 6 mps 747 mmHg 64%
    12:00 +38°C° 0.3 mm 6 mps 746 mmHg 60%
    13:00 +38°C° 1.2 mm 6 mps 746 mmHg 58%
    14:00 +39°C° 1.2 mm 5 mps 745 mmHg 56%
    15:00 +39°C° 1.2 mm 5 mps 744 mmHg 54%
    16:00 +39°C° 1.1 mm 5 mps 744 mmHg 56%
    17:00 +37°C° 1.1 mm 4 mps 744 mmHg 58%
    18:00 +36°C° 1.1 mm 4 mps 744 mmHg 60%
    19:00 +36°C° 0.6 mm 4 mps 745 mmHg 64%
    20:00 +35°C° 0.6 mm 4 mps 745 mmHg 68%
    21:00 +34°C° 0.6 mm 3 mps 746 mmHg 72%
    22:00 +33°C° 0.5 mm 3 mps 746 mmHg 73%
    23:00 +33°C° 0.5 mm 4 mps 746 mmHg 75%

    Day after tomorrow, 18 July, Wednesday

    Time Temperature Precipitation Wind Pressure Humidity
    00:00 +33°C° 0.5 mm 4 mps 746 mmHg 77%
    01:00 +31°C° 0.4 mm 3 mps 746 mmHg 78%
    02:00 +31°C° 0.4 mm 3 mps 746 mmHg 80%
    03:00 +31°C° 0.4 mm 3 mps 746 mmHg 82%
    04:00 +30°C° 0 mm 3 mps 746 mmHg 83%
    05:00 +30°C° 0 mm 3 mps 746 mmHg 84%
    06:00 +30°C° 0 mm 3 mps 746 mmHg 84%
    07:00 +32°C° 0 mm 4 mps 746 mmHg 81%
    08:00 +32°C° 0 mm 4 mps 747 mmHg 78%
    09:00 +33°C° 0 mm 5 mps 747 mmHg 74%
    10:00 +34°C° 0 mm 5 mps 747 mmHg 69%
    11:00 +36°C° 0 mm 5 mps 747 mmHg 64%
    12:00 +37°C° 0 mm 5 mps 746 mmHg 59%
    13:00 +37°C° 0.3 mm 4 mps 746 mmHg 57%
    14:00 +38°C° 0.3 mm 4 mps 745 mmHg 55%
    15:00 +38°C° 0.3 mm 4 mps 744 mmHg 53%
    16:00 +38°C° 0.4 mm 4 mps 744 mmHg 54%
    17:00 +38°C° 0.4 mm 3 mps 744 mmHg 56%
    18:00 +37°C° 0.4 mm 3 mps 744 mmHg 58%
    19:00 +36°C° 0.3 mm 3 mps 744 mmHg 61%
    20:00 +36°C° 0.3 mm 2 mps 745 mmHg 64%
    21:00 +35°C° 0.3 mm 2 mps 746 mmHg 67%
    22:00 +35°C° 0.1 mm 2 mps 746 mmHg 69%
    23:00 +34°C° 0.1 mm 2 mps 746 mmHg 70%

    19 July, Thursday

    Time Temperature Precipitation Wind Pressure Humidity
    00:00 +34°C° 0.1 mm 2 mps 746 mmHg 72%
    01:00 +32°C° 0.4 mm 2 mps 746 mmHg 74%
    02:00 +32°C° 0.4 mm 2 mps 745 mmHg 76%
    03:00 +31°C° 0.4 mm 2 mps 745 mmHg 78%
    04:00 +31°C° 0.3 mm 2 mps 745 mmHg 80%
    05:00 +31°C° 0.3 mm 2 mps 745 mmHg 81%
    06:00 +31°C° 0.3 mm 2 mps 745 mmHg 82%
    07:00 +32°C° 0 mm 2 mps 746 mmHg 76%
    08:00 +34°C° 0 mm 3 mps 746 mmHg 71%
    09:00 +35°C° 0 mm 3 mps 746 mmHg 65%
    10:00 +36°C° 0 mm 3 mps 746 mmHg 60%
    11:00 +37°C° 0 mm 3 mps 746 mmHg 54%
    12:00 +38°C° 0 mm 3 mps 746 mmHg 49%
    13:00 +39°C° 0 mm 3 mps 745 mmHg 48%
    14:00 +39°C° 0 mm 3 mps 744 mmHg 46%
    15:00 +40°C° 0 mm 3 mps 744 mmHg 44%
    16:00 +39°C° 0 mm 3 mps 743 mmHg 46%
    17:00 +39°C° 0 mm 3 mps 743 mmHg 48%
    18:00 +39°C° 0 mm 3 mps 743 mmHg 50%
    19:00 +38°C° 0 mm 3 mps 744 mmHg 54%
    20:00 +37°C° 0 mm 3 mps 744 mmHg 58%
    21:00 +36°C° 0 mm 3 mps 745 mmHg 61%
    22:00 +35°C° 0 mm 3 mps 745 mmHg 63%
    23:00 +35°C° 0 mm 2 mps 745 mmHg 65%

    20 July, Friday

    Time Temperature Precipitation Wind Pressure Humidity
    00:00 +34°C° 0 mm 2 mps 745 mmHg 66%
    01:00 +34°C° 0.3 mm 2 mps 745 mmHg 69%
    02:00 +32°C° 0.3 mm 2 mps 745 mmHg 71%
    03:00 +32°C° 0.3 mm 2 mps 744 mmHg 73%
    04:00 +32°C° 0.6 mm 2 mps 745 mmHg 75%
    05:00 +32°C° 0.6 mm 2 mps 745 mmHg 77%
    06:00 +31°C° 0.6 mm 2 mps 745 mmHg 79%
    07:00 +32°C° 0.3 mm 2 mps 745 mmHg 75%
    08:00 +34°C° 0.3 mm 2 mps 746 mmHg 71%
    09:00 +35°C° 0.3 mm 2 mps 746 mmHg 68%
    10:00 +36°C° 0 mm 2 mps 746 mmHg 62%
    11:00 +37°C° 0 mm 3 mps 745 mmHg 57%
    12:00 +38°C° 0 mm 3 mps 745 mmHg 52%
    13:00 +38°C° 0 mm 3 mps 744 mmHg 50%
    14:00 +39°C° 0 mm 3 mps 744 mmHg 49%
    15:00 +39°C° 0 mm 2 mps 743 mmHg 47%
    16:00 +39°C° 0 mm 2 mps 743 mmHg 48%
    17:00 +39°C° 0 mm 2 mps 743 mmHg 49%
    18:00 +39°C° 0 mm 2 mps 743 mmHg 49%
    19:00 +38°C° 0 mm 2 mps 743 mmHg 53%
    20:00 +37°C° 0 mm 2 mps 744 mmHg 56%
    21:00 +36°C° 0 mm 2 mps 744 mmHg 59%
    22:00 +36°C° 0 mm 2 mps 745 mmHg 61%
    23:00 +35°C° 0 mm 2 mps 745 mmHg 63%

    21 July, Saturday

    Time Temperature Precipitation Wind Pressure Humidity
    00:00 +35°C° 0 mm 2 mps 745 mmHg 65%
    01:00 +34°C° 0 mm 2 mps 744 mmHg 67%
    02:00 +34°C° 0 mm 2 mps 744 mmHg 69%
    03:00 +34°C° 0 mm 2 mps 744 mmHg 71%
    04:00 +32°C° 0 mm 2 mps 744 mmHg 73%
    05:00 +32°C° 0 mm 2 mps 744 mmHg 75%
    06:00 +32°C° 0 mm 2 mps 744 mmHg 76%
    07:00 +33°C° 0.1 mm 1 mps 745 mmHg 72%
    08:00 +34°C° 0.1 mm 1 mps 745 mmHg 68%
    09:00 +35°C° 0.1 mm 1 mps 745 mmHg 64%
    10:00 +37°C° 0.1 mm 2 mps 745 mmHg 60%
    11:00 +38°C° 0.1 mm 2 mps 745 mmHg 56%
    12:00 +39°C° 0.1 mm 2 mps 744 mmHg 52%
    13:00 +39°C° 0 mm 2 mps 744 mmHg 50%
    14:00 +39°C° 0 mm 2 mps 743 mmHg 49%
    15:00 +39°C° 0 mm 2 mps 742 mmHg 48%
    16:00 +39°C° 0 mm 2 mps 742 mmHg 49%
    17:00 +39°C° 0 mm 1 mps 742 mmHg 50%
    18:00 +39°C° 0 mm 1 mps 743 mmHg 51%
    19:00 +37°C° 0 mm 1 mps 743 mmHg 52%
    20:00 +37°C° 0 mm 1 mps 744 mmHg 54%
    21:00 +37°C° 0 mm 2 mps 744 mmHg 56%
    22:00 +37°C° 0 mm 2 mps 744 mmHg 58%
    23:00 +36°C° 0 mm 2 mps 744 mmHg 60%
    Show more